Location: Moulis
(42.9609°N, 1.0909°E)
Time: 07:24:00
(UTC+00:00)

Cosmos 1953 Rocket - Pass Details

Date: 11 December 2025
Orbit: 599 x 627 km, 82.5° (Epoch: 13 January)

Event Time Altitude Azimuth Distance (km) Brightness Sun altitude
Rises 17:12:10 0° 3° (N) 2,915 6.8 -9.1°
Reaches altitude 10° 17:14:42 10° 15° (NNE) 2,006 5.8 -9.6°
Maximum altitude 17:18:29 27° 74° (ENE) 1,221 4.5 -10.2°
Drops below altitude 10° 17:22:14 10° 132° (SE) 1,998 5.9 -10.8°
Sets 17:24:45 0° 144° (SE) 2,900 6.9 -11.3°
